,,Stat6,,Stat2,,Stat8,,Stat9,,Stat10,,Wind1,,Wind1,
time,status,PA1M_AVG,status,PR1M_SUM,status,RH1M_AVG,status,SR1M_AVG,status,TA1M_AVG,status,W1dAve1m,status,W1sAve1m,
2003-09-23, 00:00:00,VALID,919.721,VALID,0,VALID,100,VALID,-0.0169808,VALID,18.4641,VALID,112,VALID,1.03307,
2003-09-23, 00:01:00,VALID,919.713,VALID,0,VALID,100,VALID,0,VALID,18.4673,VALID,102,VALID,0.984885,
2003-09-23, 00:02:00,VALID,919.706,VALID,0,VALID,100,VALID,0,VALID,18.4805,VALID,103,VALID,0.987909,
2003-09-23, 00:03:00,VALID,919.703,VALID,0,VALID,100,VALID,0,VALID,18.4805,VALID,98,VALID,0.991824,
2003-09-23, 00:04:00,VALID,919.7,VALID,0,VALID,100,VALID,-0.0339617,VALID,18.4871,VALID,97,VALID,0.926599,
2003-09-23, 00:05:00,VALID,919.7,VALID,0,VALID,100,VALID,-0.0339617,VALID,18.4901,VALID,104,VALID,0.98952,
2003-09-23, 00:06:00,VALID,919.7,VALID,0,VALID,100,VALID,0,VALID,18.5001,VALID,108,VALID,1.0375,
2003-09-23, 00:07:00,VALID,919.699,VALID,0,VALID,100,VALID,-0.0169808,VALID,18.5063,VALID,108,VALID,0.946221,
2003-09-23, 00:08:00,VALID,919.692,VALID,0,VALID,100,VALID,-0.0169808,VALID,18.5222,VALID,102,VALID,0.97923,
2003-09-23, 00:09:00,VALID,919.688,VALID,0,VALID,100,VALID,0,VALID,18.5321,VALID,101,VALID,0.890803,
2003-09-23, 00:10:00,VALID,919.66,VALID,0,VALID,100,VALID,-0.0339617,VALID,18.5383,VALID,105,VALID,0.915879,
2003-09-23, 00:11:00,VALID,919.635,VALID,0,VALID,100,VALID,0,VALID,18.5519,VALID,105,VALID,0.844122,
2003-09-23, 00:12:00,VALID,919.605,VALID,0,VALID,100,VALID,-0.0169808,VALID,18.5413,VALID,120,VALID,1.0843,
2003-09-23, 00:13:00,VALID,919.593,VALID,0,VALID,100,VALID,0,VALID,18.5579,VALID,127,VALID,1.15407,
2003-09-23, 00:14:00,VALID,919.57,VALID,0,VALID,100,VALID,-0.0169808,VALID,18.5577,VALID,130,VALID,1.07777,
2003-09-23, 00:15:00,VALID,919.548,VALID,0,VALID,100,VALID,0,VALID,18.5674,VALID,129,VALID,1.0714,
2003-09-23, 00:16:00,VALID,919.526,VALID,0,VALID,100,VALID,0.0169808,VALID,18.5734,VALID,123,VALID,1.20494,
2003-09-23, 00:17:00,VALID,919.524,VALID,0,VALID,100,VALID,-0.0169808,VALID,18.5672,VALID,116,VALID,1.15734,
2003-09-23, 00:18:00,VALID,919.522,VALID,0,VALID,100,VALID,0,VALID,18.5709,VALID,108,VALID,1.33685,
2003-09-23, 00:19:00,VALID,919.534,VALID,0,VALID,100,VALID,0.0169808,VALID,18.5485,VALID,96,VALID,0.962612,
2003-09-23, 00:20:00,VALID,919.505,VALID,0,VALID,100,VALID,0.0169808,VALID,18.5351,VALID,118,VALID,1.54992,
2003-09-23, 00:21:00,VALID,919.496,VALID,0,VALID,100,VALID,0,VALID,18.5446,VALID,86,VALID,0.95191,
2003-09-23, 00:22:00,VALID,919.464,VALID,0,VALID,100,VALID,0,VALID,18.5448,VALID,97,VALID,0.787109,
2003-09-23, 00:23:00,VALID,919.46,VALID,0,VALID,100,VALID,0.0169808,VALID,18.5483,VALID,103,VALID,0.926153,
2003-09-23, 00:24:00,VALID,919.426,VALID,0,VALID,100,VALID,0,VALID,18.5446,VALID,129,VALID,1.07358,
2003-09-23, 00:25:00,VALID,919.398,VALID,0,VALID,100,VALID,-0.0169808,VALID,18.5642,VALID,131,VALID,1.00545,
2003-09-23, 00:26:00,VALID,919.398,VALID,0,VALID,100,VALID,-0.0339617,VALID,18.5741,VALID,119,VALID,1.13491,
2003-09-23, 00:27:00,VALID,919.371,VALID,0,VALID,100,VALID,0,VALID,18.5706,VALID,117,VALID,1.05945,
2003-09-23, 00:28:00,VALID,919.361,VALID,0,VALID,100,VALID,0,VALID,18.5741,VALID,114,VALID,0.91059,
2003-09-23, 00:29:00,VALID,919.325,VALID,0,VALID,100,VALID,-0.0169808,VALID,18.5704,VALID,107,VALID,0.816939,
2003-09-23, 00:30:00,VALID,919.304,VALID,0,VALID,100,VALID,0,VALID,18.5738,VALID,110,VALID,0.857329,
2003-09-23, 00:31:00,VALID,919.268,VALID,0,VALID,100,VALID,0,VALID,18.5736,VALID,105,VALID,0.776296,
2003-09-23, 00:32:00,VALID,919.258,VALID,0,VALID,100,VALID,0,VALID,18.5773,VALID,107,VALID,0.596354,
2003-09-23, 00:33:00,VALID,919.243,VALID,0,VALID,100,VALID,0,VALID,18.5937,VALID,107,VALID,0.520774,
2003-09-23, 00:34:00,VALID,919.223,VALID,0,VALID,100,VALID,0,VALID,18.5935,VALID,107,VALID,0.406994,
2003-09-23, 00:35:00,VALID,919.203,VALID,0,VALID,100,VALID,-0.0339617,VALID,18.6098,VALID,107,VALID,0.602679,
2003-09-23, 00:36:00,VALID,919.173,VALID,0,VALID,100,VALID,0,VALID,18.6031,VALID,107,VALID,0.706395,
2003-09-23, 00:37:00,VALID,919.156,VALID,0,VALID,100,VALID,-0.0169808,VALID,18.6126,VALID,109,VALID,0.898065,
2003-09-23, 00:38:00,VALID,919.128,VALID,0,VALID,100,VALID,-0.0169808,VALID,18.6188,VALID,108,VALID,0.919207,
2003-09-23, 00:39:00,VALID,919.094,VALID,0,VALID,100,VALID,-0.0169808,VALID,18.6257,VALID,91,VALID,1.03943,
2003-09-23, 00:40:00,VALID,919.053,VALID,0,VALID,100,VALID,-0.0339617,VALID,18.6488,VALID,83,VALID,0.725074,
2003-09-23, 00:41:00,VALID,919.032,VALID,0,VALID,100,VALID,-0.0169808,VALID,18.6712,VALID,83,VALID,0.546503,
2003-09-23, 00:42:00,VALID,918.983,VALID,0,VALID,100,VALID,-0.0169808,VALID,18.6834,VALID,91,VALID,0.359738,
2003-09-23, 00:43:00,VALID,918.954,VALID,0,VALID,100,VALID,0,VALID,18.6933,VALID,126,VALID,0.331745,
2003-09-23, 00:44:00,VALID,918.936,VALID,0,VALID,100,VALID,-0.0169808,VALID,18.6998,VALID,141,VALID,0.629192,
2003-09-23, 00:45:00,VALID,918.894,VALID,0,VALID,100,VALID,0,VALID,18.7035,VALID,139,VALID,0.5625,
2003-09-23, 00:46:00,VALID,918.876,VALID,0,VALID,100,VALID,-0.0339617,VALID,18.7166,VALID,143,VALID,0.482887,
2003-09-23, 00:47:00,VALID,918.857,VALID,0,VALID,100,VALID,-0.0339617,VALID,18.703,VALID,148,VALID,0.573305,
2003-09-23, 00:48:00,VALID,918.846,VALID,0,VALID,100,VALID,0,VALID,18.7134,VALID,151,VALID,0.457775,
2003-09-23, 00:49:00,VALID,918.821,VALID,0,VALID,100,VALID,-0.0339617,VALID,18.7035,VALID,146,VALID,0.542878,
2003-09-23, 00:50:00,VALID,918.805,VALID,0,VALID,100,VALID,0,VALID,18.6965,VALID,141,VALID,0.52397,
2003-09-23, 00:51:00,VALID,918.784,VALID,0,VALID,100,VALID,0,VALID,18.7002,VALID,130,VALID,0.53497,
2003-09-23, 00:52:00,VALID,918.793,VALID,0,VALID,99.987,VALID,0,VALID,18.703,VALID,135,VALID,0.244855,
2003-09-23, 00:53:00,VALID,918.766,VALID,0,VALID,99.957,VALID,-0.0339617,VALID,18.703,VALID,136,VALID,0.475654,
2003-09-23, 00:54:00,VALID,918.759,VALID,0,VALID,99.9112,VALID,0,VALID,18.7,VALID,88,VALID,0.616824,
2003-09-23, 00:55:00,VALID,918.746,VALID,0,VALID,99.8655,VALID,-0.0509425,VALID,18.6938,VALID,88,VALID,0.629724,
2003-09-23, 00:56:00,VALID,918.732,VALID,0,VALID,99.793,VALID,-0.0169808,VALID,18.6772,VALID,106,VALID,0.577934,
2003-09-23, 00:57:00,VALID,918.719,VALID,0,VALID,99.7854,VALID,-0.0169808,VALID,18.6781,VALID,127,VALID,0.876645,
2003-09-23, 00:58:00,VALID,918.702,VALID,0,VALID,99.8032,VALID,-0.0339617,VALID,18.6811,VALID,129,VALID,1.08121,
2003-09-23, 00:59:00,VALID,918.677,VALID,0,VALID,99.7637,VALID,-0.0169808,VALID,18.6739,VALID,130,VALID,0.819141,
2003-09-23, 01:00:00,VALID,918.636,VALID,0,VALID,99.7027,VALID,-0.0169808,VALID,18.6774,VALID,139,VALID,0.789634,
2003-09-23, 01:01:00,VALID,918.613,VALID,0,VALID,99.6887,VALID,0,VALID,18.6804,VALID,158,VALID,0.635356,
2003-09-23, 01:02:00,VALID,918.581,VALID,0,VALID,99.6582,VALID,0,VALID,18.6873,VALID,171,VALID,0.444041,
2003-09-23, 01:03:00,VALID,918.571,VALID,0,VALID,99.6175,VALID,0,VALID,18.6836,VALID,167,VALID,0.342448,
2003-09-23, 01:04:00,VALID,918.559,VALID,0,VALID,99.6251,VALID,-0.0339617,VALID,18.697,VALID,172,VALID,0.379724,
2003-09-23, 01:05:00,VALID,918.568,VALID,0,VALID,99.6239,VALID,-0.0339617,VALID,18.6963,VALID,161,VALID,0.185268,
2003-09-23, 01:06:00,VALID,918.551,VALID,0,VALID,99.5501,VALID,-0.0169808,VALID,18.7127,VALID,135,VALID,0.464844,
2003-09-23, 01:07:00,VALID,918.553,VALID,0,VALID,99.4751,VALID,-0.0339617,VALID,18.7,VALID,130,VALID,0.642113,
2003-09-23, 01:08:00,VALID,918.539,VALID,0,VALID,99.4751,VALID,-0.0509425,VALID,18.6742,VALID,88,VALID,0.662326,
2003-09-23, 01:09:00,VALID,918.529,VALID,0,VALID,99.5107,VALID,-0.0679233,VALID,18.6677,VALID,70,VALID,0.592478,
2003-09-23, 01:10:00,VALID,918.523,VALID,0,VALID,99.5717,VALID,-0.0339617,VALID,18.6742,VALID,55,VALID,0.775213,
2003-09-23, 01:11:00,VALID,918.508,VALID,0,VALID,99.5488,VALID,-0.0169808,VALID,18.6707,VALID,66,VALID,0.759301,
2003-09-23, 01:12:00,VALID,918.506,VALID,0,VALID,99.5272,VALID,-0.0509425,VALID,18.6647,VALID,89,VALID,0.88125,
2003-09-23, 01:13:00,VALID,918.485,VALID,0,VALID,99.4942,VALID,-0.0169808,VALID,18.6612,VALID,100,VALID,0.881747,
2003-09-23, 01:14:00,VALID,918.467,VALID,0,VALID,99.4687,VALID,-0.0169808,VALID,18.658,VALID,107,VALID,1.10247,
2003-09-23, 01:15:00,VALID,918.439,VALID,0,VALID,99.4458,VALID,-0.0169808,VALID,18.6449,VALID,103,VALID,0.794695,
2003-09-23, 01:16:00,VALID,918.424,VALID,0,VALID,99.442,VALID,-0.0339617,VALID,18.6516,VALID,106,VALID,0.690696,
2003-09-23, 01:17:00,VALID,918.407,VALID,0,VALID,99.4204,VALID,-0.0169808,VALID,18.6451,VALID,113,VALID,0.807813,
2003-09-23, 01:18:00,VALID,918.388,VALID,0,VALID,99.4166,VALID,-0.0849042,VALID,18.6527,VALID,97,VALID,0.69184,
2003-09-23, 01:19:00,VALID,918.378,VALID,0,VALID,99.4446,VALID,-0.101885,VALID,18.6463,VALID,83,VALID,0.810547,
2003-09-23, 01:20:00,VALID,918.358,VALID,0,VALID,99.4827,VALID,-0.101885,VALID,18.6458,VALID,69,VALID,0.818859,
2003-09-23, 01:21:00,VALID,918.353,VALID,0,VALID,99.4878,VALID,-0.101885,VALID,18.6493,VALID,67,VALID,1.11836,
2003-09-23, 01:22:00,VALID,918.336,VALID,0,VALID,99.4369,VALID,-0.101885,VALID,18.6368,VALID,75,VALID,1.0387,
2003-09-23, 01:23:00,VALID,918.312,VALID,0,VALID,99.4051,VALID,-0.101885,VALID,18.6308,VALID,81,VALID,0.689757,
2003-09-23, 01:24:00,VALID,918.293,VALID,0,VALID,99.3937,VALID,-0.118866,VALID,18.6011,VALID,109,VALID,0.951705,
2003-09-23, 01:25:00,VALID,918.257,VALID,0,VALID,99.395,VALID,-0.118866,VALID,18.5817,VALID,112,VALID,0.752539,
2003-09-23, 01:26:00,VALID,918.235,VALID,0,VALID,99.4229,VALID,-0.101885,VALID,18.5748,VALID,129,VALID,1.07404,
2003-09-23, 01:27:00,VALID,918.21,VALID,0,VALID,99.4929,VALID,-0.101885,VALID,18.5688,VALID,130,VALID,1.4109,
2003-09-23, 01:28:00,VALID,918.175,VALID,0,VALID,99.512,VALID,-0.101885,VALID,18.549,VALID,118,VALID,1.37184,
2003-09-23, 01:29:00,VALID,918.162,VALID,0,VALID,99.5234,VALID,-0.0849042,VALID,18.5268,VALID,119,VALID,1.42691,
2003-09-23, 01:30:00,VALID,918.138,VALID,0,VALID,99.5972,VALID,-0.101885,VALID,18.4978,VALID,101,VALID,1.2239,
2003-09-23, 01:31:00,VALID,918.13,VALID,0,VALID,99.6671,VALID,-0.101885,VALID,18.4752,VALID,119,VALID,0.951265,
2003-09-23, 01:32:00,VALID,918.125,VALID,0,VALID,99.7434,VALID,-0.0679233,VALID,18.4553,VALID,105,VALID,1.14063,
2003-09-23, 01:33:00,VALID,918.114,VALID,0,VALID,99.7892,VALID,0,VALID,18.4479,VALID,87,VALID,0.926962,
2003-09-23, 01:34:00,VALID,918.118,VALID,0,VALID,99.8222,VALID,-0.0169808,VALID,18.4283,VALID,83,VALID,0.717949,
2003-09-23, 01:35:00,VALID,918.111,VALID,0,VALID,99.868,VALID,0,VALID,18.4253,VALID,66,VALID,0.908681,
2003-09-23, 01:36:00,VALID,918.119,VALID,0,VALID,99.9112,VALID,0,VALID,18.4221,VALID,83,VALID,0.838481,
2003-09-23, 01:37:00,VALID,918.118,VALID,0,VALID,99.9265,VALID,0,VALID,18.4159,VALID,80,VALID,0.690407,
2003-09-23, 01:38:00,VALID,918.115,VALID,0,VALID,99.9481,VALID,-0.0169808,VALID,18.3998,VALID,73,VALID,0.656605,
2003-09-23, 01:39:00,VALID,918.107,VALID,0,VALID,99.9825,VALID,0,VALID,18.4094,VALID,83,VALID,0.617006,
2003-09-23, 01:40:00,VALID,918.098,VALID,0,VALID,99.9952,VALID,0,VALID,18.3995,VALID,103,VALID,0.887649,
2003-09-23, 01:41:00,VALID,918.099,VALID,0,VALID,100,VALID,-0.0339617,VALID,18.3965,VALID,101,VALID,1.00763,
2003-09-23, 01:42:00,VALID,918.102,VALID,0,VALID,100,VALID,-0.0169808,VALID,18.3993,VALID,105,VALID,1.0627,
2003-09-23, 01:43:00,VALID,918.097,VALID,0,VALID,100,VALID,-0.0169808,VALID,18.4129,VALID,108,VALID,1.03939,
2003-09-23, 01:44:00,VALID,918.109,VALID,0,VALID,100,VALID,0,VALID,18.4226,VALID,97,VALID,0.693788,
2003-09-23, 01:45:00,VALID,918.087,VALID,0,VALID,100,VALID,0,VALID,18.429,VALID,109,VALID,0.669667,
2003-09-23, 01:46:00,VALID,918.069,VALID,0,VALID,100,VALID,0,VALID,18.4385,VALID,123,VALID,0.767299,
2003-09-23, 01:47:00,VALID,918.047,VALID,0,VALID,100,VALID,-0.0169808,VALID,18.4675,VALID,135,VALID,0.707304,
2003-09-23, 01:48:00,VALID,918.024,VALID,0,VALID,100,VALID,0.0169808,VALID,18.4936,VALID,122,VALID,0.290923,
2003-09-23, 01:49:00,VALID,917.998,VALID,0,VALID,100,VALID,0,VALID,18.4842,VALID,120,VALID,0.419588,
2003-09-23, 01:50:00,VALID,917.972,VALID,0,VALID,100,VALID,-0.0509425,VALID,18.4941,VALID,118,VALID,0.465402,
2003-09-23, 01:51:00,VALID,917.949,VALID,0,VALID,100,VALID,0,VALID,18.4639,VALID,125,VALID,0.468023,
2003-09-23, 01:52:00,VALID,917.93,VALID,0,VALID,100,VALID,0,VALID,18.474,VALID,123,VALID,0.462081,
2003-09-23, 01:53:00,VALID,917.909,VALID,0,VALID,100,VALID,0,VALID,18.4705,VALID,121,VALID,0.560138,
2003-09-23, 01:54:00,VALID,917.904,VALID,0,VALID,100,VALID,0,VALID,18.4839,VALID,121,VALID,0.628324,
2003-09-23, 01:55:00,VALID,917.9,VALID,0,VALID,99.9967,VALID,0,VALID,18.4777,VALID,121,VALID,0.56686,
2003-09-23, 01:56:00,VALID,917.883,VALID,0,VALID,99.957,VALID,0,VALID,18.4641,VALID,121,VALID,0.538881,
2003-09-23, 01:57:00,VALID,917.863,VALID,0,VALID,99.9418,VALID,0,VALID,18.4514,VALID,111,VALID,0.782639,
2003-09-23, 01:58:00,VALID,917.846,VALID,0,VALID,99.9214,VALID,0,VALID,18.4546,VALID,107,VALID,0.856105,
2003-09-23, 01:59:00,VALID,917.818,VALID,0,VALID,99.8515,VALID,0.0169808,VALID,18.4484,VALID,104,VALID,0.824033,
2003-09-23, 02:00:00,VALID,917.81,VALID,0,VALID,99.8019,VALID,0,VALID,18.4323,VALID,96,VALID,1.0059,
2003-09-23, 02:01:00,VALID,917.792,VALID,0,VALID,99.7765,VALID,0,VALID,18.4256,VALID,96,VALID,0.988542,
2003-09-23, 02:02:00,VALID,917.789,VALID,0,VALID,99.7078,VALID,0,VALID,18.4258,VALID,94,VALID,0.946181,
2003-09-23, 02:03:00,VALID,917.768,VALID,0,VALID,99.6328,VALID,-0.0169808,VALID,18.3836,VALID,82,VALID,0.789418,
2003-09-23, 02:04:00,VALID,917.746,VALID,0,VALID,99.5285,VALID,-0.0169808,VALID,18.3481,VALID,82,VALID,0.668786,
2003-09-23, 02:05:00,VALID,917.702,VALID,0,VALID,99.5577,VALID,-0.0169808,VALID,18.3096,VALID,101,VALID,0.994474,
2003-09-23, 02:06:00,VALID,917.675,VALID,0,VALID,99.6175,VALID,-0.0169808,VALID,18.3096,VALID,96,VALID,0.880526,
2003-09-23, 02:07:00,VALID,917.621,VALID,0,VALID,99.6798,VALID,-0.0169808,VALID,18.3034,VALID,105,VALID,1.25302,
2003-09-23, 02:08:00,VALID,917.582,VALID,0,VALID,99.6582,VALID,0,VALID,18.2872,VALID,102,VALID,1.21113,
2003-09-23, 02:09:00,VALID,917.527,VALID,0,VALID,99.7205,VALID,-0.0339617,VALID,18.2808,VALID,93,VALID,1.01875,
2003-09-23, 02:10:00,VALID,917.475,VALID,0,VALID,99.6925,VALID,-0.0169808,VALID,18.2778,VALID,85,VALID,0.75558,
2003-09-23, 02:11:00,VALID,917.439,VALID,0,VALID,99.6671,VALID,0,VALID,18.2448,VALID,99,VALID,0.960565,
2003-09-23, 02:12:00,VALID,917.412,VALID,0,VALID,99.7447,VALID,0,VALID,18.222,VALID,82,VALID,0.854688,
2003-09-23, 02:13:00,VALID,917.393,VALID,0,VALID,99.779,VALID,-0.0169808,VALID,18.2264,VALID,92,VALID,0.799665,
2003-09-23, 02:14:00,VALID,917.371,VALID,0,VALID,99.854,VALID,0,VALID,18.216,VALID,87,VALID,0.832617,
2003-09-23, 02:15:00,VALID,917.355,VALID,0,VALID,99.9138,VALID,-0.0169808,VALID,18.2192,VALID,103,VALID,1.00667,
2003-09-23, 02:16:00,VALID,917.34,VALID,0,VALID,99.9672,VALID,0,VALID,18.2457,VALID,100,VALID,1.08394,
2003-09-23, 02:17:00,VALID,917.347,VALID,0,VALID,99.9957,VALID,0,VALID,18.2515,VALID,87,VALID,0.916295,
2003-09-23, 02:18:00,VALID,917.351,VALID,0,VALID,99.999,VALID,0.0169808,VALID,18.248,VALID,78,VALID,1.05142,
2003-09-23, 02:19:00,VALID,917.362,VALID,0,VALID,99.9919,VALID,0,VALID,18.2356,VALID,84,VALID,1.15891,
2003-09-23, 02:20:00,VALID,917.352,VALID,0,VALID,99.9819,VALID,-0.0169808,VALID,18.2128,VALID,91,VALID,1.22504,
2003-09-23, 02:21:00,VALID,917.338,VALID,0,VALID,99.999,VALID,0.0169808,VALID,18.2033,VALID,89,VALID,1.05097,
2003-09-23, 02:22:00,VALID,917.339,VALID,0,VALID,99.9906,VALID,0.0169808,VALID,18.1837,VALID,76,VALID,0.919085,
2003-09-23, 02:23:00,VALID,917.329,VALID,0,VALID,99.9621,VALID,0,VALID,18.1616,VALID,75,VALID,1.06959,
2003-09-23, 02:24:00,VALID,917.314,VALID,0,VALID,99.9847,VALID,0,VALID,18.1452,VALID,76,VALID,1.03795,
2003-09-23, 02:25:00,VALID,917.306,VALID,0,VALID,99.9964,VALID,-0.0169808,VALID,18.1583,VALID,80,VALID,1.07571,
2003-09-23, 02:26:00,VALID,917.323,VALID,0,VALID,100,VALID,-0.101885,VALID,18.1756,VALID,96,VALID,0.90407,
2003-09-23, 02:27:00,VALID,917.324,VALID,0,VALID,100,VALID,-0.118866,VALID,18.1915,VALID,86,VALID,0.833705,
2003-09-23, 02:28:00,VALID,917.33,VALID,0,VALID,100,VALID,-0.0679233,VALID,18.2042,VALID,76,VALID,0.613376,
2003-09-23, 02:29:00,VALID,917.344,VALID,0,VALID,99.999,VALID,-0.101885,VALID,18.1784,VALID,76,VALID,0.56808,
2003-09-23, 02:30:00,VALID,917.356,VALID,0,VALID,99.9977,VALID,-0.0849042,VALID,18.1982,VALID,76,VALID,0.551153,
2003-09-23, 02:31:00,VALID,917.359,VALID,0,VALID,99.9944,VALID,-0.101885,VALID,18.2176,VALID,86,VALID,0.568576,
2003-09-23, 02:32:00,VALID,917.37,VALID,0,VALID,99.9659,VALID,-0.0509425,VALID,18.2167,VALID,91,VALID,0.583274,
2003-09-23, 02:33:00,VALID,917.362,VALID,0,VALID,99.8362,VALID,0,VALID,18.2201,VALID,123,VALID,0.80202,
2003-09-23, 02:34:00,VALID,917.366,VALID,0,VALID,99.737,VALID,-0.0169808,VALID,18.1867,VALID,138,VALID,0.927148,
2003-09-23, 02:35:00,VALID,917.363,VALID,0,VALID,99.7447,VALID,0.0169808,VALID,18.1708,VALID,138,VALID,0.975675,
2003-09-23, 02:36:00,VALID,917.359,VALID,0,VALID,99.7625,VALID,0,VALID,18.1715,VALID,137,VALID,0.969778,
2003-09-23, 02:37:00,VALID,917.378,VALID,0,VALID,99.7345,VALID,0,VALID,18.1708,VALID,156,VALID,0.637074,
2003-09-23, 02:38:00,VALID,917.402,VALID,0,VALID,99.7103,VALID,0,VALID,18.171,VALID,145,VALID,0.679306,
2003-09-23, 02:39:00,VALID,917.441,VALID,0,VALID,99.737,VALID,0.0169808,VALID,18.1807,VALID,140,VALID,0.71984,
2003-09-23, 02:40:00,VALID,917.478,VALID,0,VALID,99.704,VALID,0,VALID,18.1807,VALID,126,VALID,1.02539,
2003-09-23, 02:41:00,VALID,917.499,VALID,0,VALID,99.7014,VALID,0,VALID,18.1646,VALID,124,VALID,0.90952,
2003-09-23, 02:42:00,VALID,917.536,VALID,0,VALID,99.7663,VALID,0,VALID,18.1383,VALID,111,VALID,1.50298,
2003-09-23, 02:43:00,VALID,917.547,VALID,0,VALID,99.807,VALID,0.0169808,VALID,18.1512,VALID,97,VALID,1.23277,
2003-09-23, 02:44:00,VALID,917.549,VALID,0,VALID,99.8527,VALID,0,VALID,18.1454,VALID,96,VALID,1.14695,
2003-09-23, 02:45:00,VALID,917.541,VALID,0,VALID,99.8845,VALID,0.0169808,VALID,18.1486,VALID,100,VALID,0.933966,
2003-09-23, 02:46:00,VALID,917.523,VALID,0,VALID,99.8985,VALID,-0.0169808,VALID,18.1422,VALID,103,VALID,1.1875,
2003-09-23, 02:47:00,VALID,917.514,VALID,0,VALID,99.8604,VALID,0,VALID,18.1516,VALID,93,VALID,0.97247,
2003-09-23, 02:48:00,VALID,917.499,VALID,0,VALID,99.8388,VALID,0,VALID,18.1194,VALID,82,VALID,0.880269,
2003-09-23, 02:49:00,VALID,917.49,VALID,0,VALID,99.8591,VALID,0,VALID,18.1097,VALID,78,VALID,0.858073,
2003-09-23, 02:50:00,VALID,917.493,VALID,0,VALID,99.9189,VALID,0,VALID,18.1189,VALID,84,VALID,0.838995,
2003-09-23, 02:51:00,VALID,917.492,VALID,0,VALID,99.896,VALID,0,VALID,18.1258,VALID,65,VALID,0.985243,
2003-09-23, 02:52:00,VALID,917.502,VALID,0,VALID,99.9303,VALID,0.0169808,VALID,18.1422,VALID,75,VALID,1.15262,
2003-09-23, 02:53:00,VALID,917.496,VALID,0,VALID,99.9468,VALID,0,VALID,18.1687,VALID,74,VALID,1.10826,
2003-09-23, 02:54:00,VALID,917.49,VALID,0,VALID,99.9456,VALID,-0.0169808,VALID,18.1523,VALID,89,VALID,1.03779,
2003-09-23, 02:55:00,VALID,917.486,VALID,0,VALID,99.9685,VALID,0.0169808,VALID,18.1576,VALID,81,VALID,0.87128,
2003-09-23, 02:56:00,VALID,917.501,VALID,0,VALID,99.9608,VALID,0.0169808,VALID,18.1549,VALID,95,VALID,0.782269,
2003-09-23, 02:57:00,VALID,917.502,VALID,0,VALID,99.9977,VALID,-0.0169808,VALID,18.1648,VALID,94,VALID,0.77939,
2003-09-23, 02:58:00,VALID,917.532,VALID,0,VALID,100,VALID,0,VALID,18.1678,VALID,74,VALID,0.553013,
2003-09-23, 02:59:00,VALID,917.574,VALID,0,VALID,100,VALID,0.0169808,VALID,18.1516,VALID,71,VALID,0.478051,
2003-09-23, 03:00:00,VALID,917.611,VALID,0,VALID,99.9819,VALID,0,VALID,18.1291,VALID,74,VALID,0.532012,
2003-09-23, 03:01:00,VALID,917.623,VALID,0,VALID,99.9807,VALID,0,VALID,18.1069,VALID,112,VALID,0.937128,
2003-09-23, 03:02:00,VALID,917.641,VALID,0,VALID,100,VALID,0,VALID,18.1261,VALID,129,VALID,1.22117,
2003-09-23, 03:03:00,VALID,917.647,VALID,0,VALID,100,VALID,0.0679233,VALID,18.1477,VALID,115,VALID,1.18023,
2003-09-23, 03:04:00,VALID,917.637,VALID,0,VALID,100,VALID,0.0849042,VALID,18.1832,VALID,97,VALID,0.928757,
2003-09-23, 03:05:00,VALID,917.637,VALID,0,VALID,100,VALID,0.0679233,VALID,18.2054,VALID,86,VALID,0.774009,
2003-09-23, 03:06:00,VALID,917.609,VALID,0,VALID,100,VALID,0.0679233,VALID,18.2116,VALID,106,VALID,0.850632,
2003-09-23, 03:07:00,VALID,917.589,VALID,0,VALID,100,VALID,0.0339617,VALID,18.2476,VALID,127,VALID,0.999306,
2003-09-23, 03:08:00,VALID,917.57,VALID,0,VALID,100,VALID,0.0679233,VALID,18.2501,VALID,120,VALID,1.22523,
2003-09-23, 03:09:00,VALID,917.562,VALID,0,VALID,100,VALID,0.0679233,VALID,18.2895,VALID,113,VALID,1.03869,
2003-09-23, 03:10:00,VALID,917.531,VALID,0,VALID,100,VALID,0.0339617,VALID,18.2992,VALID,109,VALID,1.08794,
2003-09-23, 03:11:00,VALID,917.523,VALID,0,VALID,100,VALID,0.0509425,VALID,18.3156,VALID,117,VALID,1.29581,
2003-09-23, 03:12:00,VALID,917.508,VALID,0,VALID,100,VALID,0.0339617,VALID,18.3248,VALID,120,VALID,1.39844,
2003-09-23, 03:13:00,VALID,917.526,VALID,0,VALID,100,VALID,0.101885,VALID,18.331,VALID,107,VALID,1.2141,
2003-09-23, 03:14:00,VALID,917.514,VALID,0,VALID,100,VALID,0.0509425,VALID,18.3442,VALID,98,VALID,1.02042,
2003-09-23, 03:15:00,VALID,917.505,VALID,0,VALID,100,VALID,0.0509425,VALID,18.3573,VALID,96,VALID,0.985937,
2003-09-23, 03:16:00,VALID,917.487,VALID,0,VALID,100,VALID,0.0339617,VALID,18.3737,VALID,101,VALID,1.1888,
2003-09-23, 03:17:00,VALID,917.464,VALID,0,VALID,100,VALID,0.0339617,VALID,18.3963,VALID,106,VALID,1.35365,
2003-09-23, 03:18:00,VALID,917.439,VALID,0,VALID,100,VALID,-0.0679233,VALID,18.426,VALID,104,VALID,1.12686,
2003-09-23, 03:19:00,VALID,917.431,VALID,0,VALID,99.999,VALID,-0.0509425,VALID,18.4521,VALID,104,VALID,1.33841,
2003-09-23, 03:20:00,VALID,917.418,VALID,0,VALID,99.9606,VALID,-0.0169808,VALID,18.465,VALID,107,VALID,1.33485,
2003-09-23, 03:21:00,VALID,917.402,VALID,0,VALID,99.8413,VALID,-0.0169808,VALID,18.4715,VALID,105,VALID,1.27269,
2003-09-23, 03:22:00,VALID,917.401,VALID,0,VALID,99.7014,VALID,-0.0339617,VALID,18.471,VALID,102,VALID,1.03999,
2003-09-23, 03:23:00,VALID,917.391,VALID,0,VALID,99.6022,VALID,-0.0679233,VALID,18.4747,VALID,113,VALID,0.982922,
2003-09-23, 03:24:00,VALID,917.374,VALID,0,VALID,99.5069,VALID,-0.0339617,VALID,18.4749,VALID,98,VALID,0.997093,
2003-09-23, 03:25:00,VALID,917.398,VALID,0,VALID,99.4331,VALID,-0.0849042,VALID,18.4816,VALID,105,VALID,0.864462,
2003-09-23, 03:26:00,VALID,917.396,VALID,0,VALID,99.2754,VALID,-0.0339617,VALID,18.4784,VALID,95,VALID,0.592188,
2003-09-23, 03:27:00,VALID,917.415,VALID,0,VALID,99.1241,VALID,-0.0849042,VALID,18.4486,VALID,83,VALID,0.547057,
2003-09-23, 03:28:00,VALID,917.445,VALID,0,VALID,99.0783,VALID,-0.0339617,VALID,18.4327,VALID,78,VALID,0.589504,
2003-09-23, 03:29:00,VALID,917.472,VALID,0,VALID,99.0084,VALID,-0.0509425,VALID,18.4069,VALID,78,VALID,0.476393,
2003-09-23, 03:30:00,VALID,917.491,VALID,0,VALID,98.9766,VALID,-0.0679233,VALID,18.3878,VALID,107,VALID,0.723772,
2003-09-23, 03:31:00,VALID,917.516,VALID,0,VALID,98.9842,VALID,-0.0339617,VALID,18.3582,VALID,139,VALID,0.77524,
2003-09-23, 03:32:00,VALID,917.497,VALID,0,VALID,99.0923,VALID,-0.0509425,VALID,18.3357,VALID,135,VALID,0.735828,
2003-09-23, 03:33:00,VALID,917.497,VALID,0,VALID,99.2068,VALID,-0.0509425,VALID,18.3361,VALID,131,VALID,0.807231,
2003-09-23, 03:34:00,VALID,917.473,VALID,0,VALID,99.2131,VALID,-0.0679233,VALID,18.3428,VALID,147,VALID,0.65625,
2003-09-23, 03:35:00,VALID,917.464,VALID,0,VALID,99.2615,VALID,-0.0169808,VALID,18.3458,VALID,149,VALID,0.40263,
2003-09-23, 03:36:00,VALID,917.432,VALID,0,VALID,99.2602,VALID,-0.0169808,VALID,18.3456,VALID,150,VALID,0.0518466,
2003-09-23, 03:37:00,VALID,917.422,VALID,0,VALID,99.2398,VALID,-0.0509425,VALID,18.346,VALID,150,VALID,0.00145349,
2003-09-23, 03:38:00,VALID,917.411,VALID,0,VALID,99.1496,VALID,-0.0169808,VALID,18.3165,VALID,150,VALID,0.0242187,
2003-09-23, 03:39:00,VALID,917.412,VALID,0,VALID,98.8812,VALID,-0.0169808,VALID,18.2552,VALID,150,VALID,0.0664063,